CAPE
0 0 0 0 0 0 0 0 0 0 0 0 0 0 0 0 0 0 0 1 2 7 19 22 27 21 20 19 19 18 22 21 17 15 4 0 3 3 4 7 158 314 337
0 0 0 0 0 0 0 0 0 0 0 0 0 0 0 0 0 0 0 0 1 0 3 12 11 8 22 26 21 32 34 29 27 20 16 7 4 1 2 3 4 16 352
0 0 0 0 0 0 0 0 0 0 0 0 0 0 0 0 0 0 0 0 0 0 0 1 2 2 10 21 24 20 26 32 32 30 29 23 13 7 4 1 2 5 4
0 0 0 0 0 0 0 0 0 0 0 0 0 0 0 0 0 0 0 0 0 0 0 0 1 1 4 3 21 33 27 25 32 38 31 30 28 19 9 6 6 2 3
0 0 0 0 0 0 0 0 0 0 0 0 0 0 0 0 0 0 0 0 0 0 0 1 2 4 4 2 11 11 22 32 21 27 20 26 20 18 8 4 2 2 0
0 0 0 0 0 0 0 0 0 0 0 0 0 0 0 0 0 0 0 0 0 0 0 0 1 1 0 3 11 6 25 39 49 38 31 16 9 12 8 4 4 11 13
0 0 0 0 0 0 0 0 0 0 0 0 0 0 0 0 0 0 0 0 0 0 0 0 1 0 0 1 3 10 9 23 28 35 31 19 19 23 24 16 4 9 9
0 0 0 0 0 0 0 0 0 0 0 0 0 0 0 0 0 0 0 0 0 0 0 0 1 0 0 0 7 2 7 17 26 28 23 19 24 24 21 15 4 4 3
0 0 0 0 0 0 0 0 0 0 0 0 0 0 0 0 0 0 1 0 0 0 0 2 1 0 1 0 3 3 3 10 13 22 23 24 23 22 19 16 19 17 2
0 0 0 0 0 0 0 0 0 0 0 0 0 0 0 0 0 0 0 0 0 0 0 0 0 1 1 1 1 7 0 0 6 12 11 20 16 22 22 22 22 19 8
0 0 0 0 0 0 0 0 0 0 0 0 0 0 0 0 0 0 0 0 0 1 0 0 0 0 0 0 5 6 5 0 0 1 6 4 2 4 16 22 22 22 22
0 0 0 0 0 0 0 0 0 0 0 0 0 0 0 0 0 0 0 0 0 1 0 0 0 0 0 0 6 5 9 4 1 1 1 2 2 8 8 4 23 23 25
0 0 0 0 0 0 0 0 0 0 0 0 0 0 0 0 0 0 0 0 0 1 0 0 0 0 0 0 1 13 7 9 0 0 3 4 1 1 4 13 16 20 22
0 0 0 0 0 0 0 0 0 0 0 0 0 0 0 0 0 0 0 0 0 0 0 0 0 0 0 0 0 0 2 0 1 0 1 1 1 0 1 2 9 12 21
0 0 0 0 0 0 0 0 0 0 0 0 0 0 0 0 0 0 0 0 0 0 0 0 0 0 0 0 0 0 0 0 6 2 1 2 2 1 1 1 2 9 5
0 0 0 0 0 0 0 0 0 0 0 0 0 0 0 0 0 0 0 0 0 0 0 0 0 0 0 0 0 0 0 0 0 2 4 3 3 3 1 1 1 2 5
0 0 0 0 0 0 0 0 0 0 0 0 0 0 0 0 0 0 0 0 0 0 0 0 0 0 0 0 0 0 0 0 0 1 2 3 4 3 3 1 1 1 2
0 0 0 0 0 0 0 0 0 0 0 0 0 0 0 0 0 0 0 0 0 0 0 0 0 0 0 0 0 0 0 0 0 0 0 5 0 1 3 2 1 2 2
0 0 0 0 0 0 0 0 0 0 0 0 0 0 0 0 0 0 0 0 0 0 0 0 0 0 0 0 0 0 0 0 0 0 0 0 2 1 1 3 1 1 2
0 0 0 0 0 0 0 0 0 0 0 0 0 0 0 0 0 0 0 0 0 0 0 0 0 0 0 0 0 0 0 0 0 0 0 0 0 0 2 3 1 1 1
0 0 0 0 0 0 0 0 0 0 0 0 0 0 0 0 0 0 0 0 0 0 0 0 0 0 0 0 0 0 0 0 0 0 0 0 0 0 0 0 1 2 1
0 0 0 0 0 0 0 0 0 0 0 0 0 0 0 0 0 0 0 0 0 0 0 0 0 0 0 0 0 0 0 0 0 0 0 0 0 0 0 0 2 2 1
0 0 0 0 0 0 0 0 0 0 0 0 0 0 0 0 0 0 0 0 0 0 0 0 0 0 0 0 0 0 0 0 0 0 0 0 0 0 0 0 0 0 0
0 0 0 0 0 0 0 0 0 0 0 0 0 0 0 0 0 0 0 0 0 0 0 0 0 0 0 0 0 0 0 0 0 0 0 0 0 0 0 0 0 0 0
0 0 0 0 0 0 0 1 0 0 0 0 0 0 0 0 0 0 0 0 0 0 5 2 0 0 0 0 0 0 0 0 0 0 0 0 0 0 0 0 0 0 0
0 0 0 0 0 0 0 0 0 0 0 0 0 0 0 0 0 0 0 0 0 0 0 0 0 0 0 0 0 0 0 0 0 0 0 0 0 0 0 0 0 0 0
CIN
-0 -0 -0 -0 -0 -0 -0 -0 -0 -0 -0 -0 -0 -0 -0 -0 -0 -0 -0 -0 -0 -0 -0 -0 -0 -0 -0 -2 -1 -2 -0 -0 -0 -0 -1 -0 -0 -0 -0 -30 -19 -10 -3
-0 -0 -0 -0 -0 -0 -0 -0 -0 -0 -0 -0 -0 -0 -0 -0 -0 -0 -0 -0 -0 -0 -0 -0 -0 -0 -0 -0 -0 -0 -0 -0 -1 -1 -0 -1 -4 -0 -0 -0 -0 -13 -2
-0 -0 -0 -0 -0 -0 -0 -0 -0 -0 -0 -0 -0 -0 -0 -0 -0 -0 -0 -0 -0 -0 -0 -0 -0 -0 -0 -0 -0 -0 -0 -0 -0 -0 -0 -1 -0 -4 -5 -0 -0 -0 -0
-0 -0 -0 -0 -0 -0 -0 -0 -0 -0 -0 -0 -0 -0 -0 -0 -0 -0 -0 -0 -0 -0 -0 -0 -0 -0 -0 -0 -0 -0 -0 -0 -0 -0 -0 -0 -0 -1 -2 -1 -0 -0 -0
-0 -0 -0 -0 -0 -0 -0 -0 -0 -0 -0 -0 -0 -0 -0 -0 -0 -0 -0 -0 -0 -0 -0 -0 -0 -0 -0 -0 -0 -0 -0 -0 -0 -0 -0 -0 -0 -0 -1 -0 -0 -0 -0
-0 -0 -0 -0 -0 -0 -0 -0 -0 -0 -0 -0 -0 -0 -0 -0 -0 -0 -0 -0 -0 -0 -0 -0 -0 -0 -0 -0 -0 -0 -0 -0 -0 -0 -0 -0 -0 -0 -0 -0 -0 -0 -0
-0 -0 -0 -0 -0 -0 -0 -0 -0 -0 -0 -0 -0 -0 -0 -0 -0 -0 -0 -0 -0 -0 -0 -0 -0 -0 -0 -0 -0 -0 -0 -0 -0 -0 -0 -0 -0 -0 -0 -0 -0 -0 -0
-0 -0 -0 -0 -0 -0 -0 -0 -0 -0 -0 -0 -0 -0 -0 -0 -0 -0 -0 -0 -0 -0 -0 -0 -0 -0 -4 -0 -0 -0 -0 -0 -0 -0 -0 -0 -0 -0 -0 -0 -0 -0 -0
-0 -0 -0 -0 -0 -0 -0 -0 -0 -0 -0 -0 -0 -0 -0 -0 -0 -0 -0 -0 -0 -0 -0 -0 -2 -0 -2 -0 -1 -0 -0 -0 -0 -0 -0 -0 -0 -0 -0 -0 -0 -0 -0
-0 -0 -0 -0 -0 -0 -0 -0 -0 -0 -0 -0 -0 -0 -0 -0 -0 -0 -0 -1 -0 -0 -0 -0 -0 -1 -3 -3 -2 -0 -0 -0 -0 -0 -0 -0 -0 -0 -0 -0 -0 -0 -0
-0 -0 -0 -0 -0 -0 -0 -0 -0 -0 -0 -0 -0 -0 -0 -0 -0 -0 -0 -0 -0 -0 -0 -0 -0 -0 -0 -0 -0 -1 -0 -1 -0 -0 -0 -0 -0 -0 -0 -0 -0 -0 -0
-0 -0 -0 -0 -0 -0 -0 -0 -0 -0 -0 -0 -0 -0 -0 -0 -0 -0 -0 -0 -0 -0 -0 -0 -0 -0 -0 -0 -0 -3 -0 -0 -1 -0 -1 -0 -1 -0 -0 -0 -0 -0 -0
-0 -0 -0 -0 -0 -0 -0 -0 -0 -0 -0 -0 -0 -0 -0 -0 -0 -0 -0 -0 -0 -0 -0 -0 -0 -0 -0 -0 -0 -0 -0 -0 -0 -1 -0 -0 -1 -1 -0 -0 -0 -0 -0
-0 -0 -0 -0 -0 -0 -0 -0 -0 -0 -0 -0 -0 -0 -0 -0 -0 -0 -0 -0 -0 -0 -0 -0 -0 -0 -0 -0 -0 -0 -1 -0 -0 -1 -1 -1 -1 -0 -1 -1 -0 -0 -0
-0 -0 -0 -0 -0 -0 -0 -0 -0 -0 -0 -0 -0 -0 -0 -0 -0 -0 -0 -0 -0 -0 -0 -0 -0 -0 -0 -0 -0 -0 -0 -0 -0 -1 -1 -0 -0 -1 -0 -1 -0 -0 -0
-0 -0 -0 -0 -0 -0 -0 -0 -0 -0 -0 -0 -0 -0 -0 -0 -0 -0 -0 -0 -0 -0 -0 -0 -0 -0 -0 -0 -0 -0 -0 -0 -0 -1 -0 -0 -1 -1 -0 -1 -1 -1 -0
-0 -0 -0 -0 -0 -0 -0 -0 -0 -0 -0 -0 -0 -0 -0 -0 -0 -0 -0 -0 -0 -0 -0 -0 -0 -0 -0 -0 -0 -0 -0 -0 -0 -1 -1 -0 -0 -0 -1 -1 -1 -0 -1
-0 -0 -0 -0 -0 -0 -0 -0 -0 -0 -0 -0 -0 -0 -0 -0 -0 -0 -0 -0 -0 -0 -0 -0 -0 -0 -0 -0 -0 -0 -0 -0 -0 -0 -0 -0 -1 -1 -1 -1 -1 -1 -1
-0 -0 -0 -0 -0 -0 -0 -0 -0 -0 -0 -0 -0 -0 -0 -0 -0 -0 -0 -0 -0 -0 -0 -0 -0 -0 -0 -0 -0 -0 -0 -0 -0 -0 -0 -0 -0 -1 -1 -1 -1 -1 -1
-0 -0 -0 -0 -0 -0 -0 -0 -0 -0 -0 -0 -0 -0 -0 -0 -0 -0 -0 -0 -0 -0 -0 -0 -0 -0 -0 -0 -0 -0 -0 -0 -0 -0 -0 -0 -0 -0 -0 -0 -1 -1 -1
-0 -0 -0 -0 -0 -0 -0 -0 -0 -0 -0 -0 -0 -0 -0 -0 -0 -0 -0 -0 -0 -0 -0 -0 -0 -0 -0 -0 -0 -0 -0 -0 -0 -0 -0 -0 -0 -0 -0 -0 -1 -1 -1
-0 -0 -0 -0 -0 -0 -0 -0 -0 -0 -0 -0 -0 -0 -0 -0 -0 -0 -0 -0 -0 -0 -0 -0 -0 -0 -0 -0 -0 -0 -0 -0 -0 -0 -0 -0 -0 -0 -0 -0 -1 -1 -1
-0 -0 -0 -0 -0 -0 -0 -0 -0 -0 -0 -0 -0 -0 -0 -0 -0 -0 -0 -0 -0 -0 -0 -0 -0 -0 -0 -0 -0 -0 -0 -0 -0 -0 -0 -0 -0 -0 -0 -0 -0 -0 -1
-0 -0 -0 -0 -0 -0 -0 -0 -0 -0 -0 -0 -0 -0 -0 -0 -0 -0 -0 -0 -0 -0 -0 -0 -0 -0 -0 -0 -0 -0 -0 -0 -0 -0 -0 -0 -0 -0 -0 -0 -0 -0 -0
-0 -0 -0 -0 -0 -0 -0 -0 -0 -0 -0 -0 -0 -0 -0 -0 -0 -0 -0 -0 -0 -0 -0 -0 -0 -0 -0 -0 -0 -0 -0 -0 -0 -0 -0 -0 -0 -0 -0 -0 -0 -0 -0
-0 -0 -0 -0 -0 -0 -0 -0 -0 -0 -0 -0 -0 -0 -0 -0 -0 -0 -0 -0 -0 -0 -0 -0 -0 -0 -0 -0 -0 -0 -0 -0 -0 -0 -0 -0 -0 -0 -0 -0 -0 -0 -0
Wind_Speed
8 9 11 12 13 14 14 15 15 17 18 19 19 18 19 21 22 23 23 24 25 25 25 26 27 27 28 29 29 31 31 30 31 30 30 30 30 31 31 32 33 31 24
8 9 11 12 13 13 14 14 15 17 18 18 18 19 20 21 22 23 23 24 25 25 25 27 27 28 29 30 29 30 30 31 31 31 31 31 32 33 32 33 34 33 34
9 10 10 12 12 13 13 14 16 17 17 17 17 19 20 22 23 24 24 24 24 25 26 27 27 28 29 30 31 31 32 32 31 31 32 32 33 33 35 35 35 36 36
9 10 10 12 13 13 14 15 16 17 16 16 17 19 21 21 23 23 24 24 25 25 26 26 28 29 30 31 31 32 32 33 33 32 32 32 33 35 35 37 37 35 37
10 9 10 12 13 14 15 16 17 16 15 16 17 19 21 21 22 22 24 25 25 25 26 26 27 29 30 31 32 32 32 32 33 33 33 33 34 35 35 36 36 37 37
10 9 11 12 13 14 14 16 17 16 15 14 16 19 20 21 22 23 23 24 25 25 26 26 27 28 29 31 32 32 33 32 32 32 33 33 34 35 35 36 37 36 36
9 9 11 13 14 15 15 16 16 14 13 13 15 18 20 20 21 22 23 23 24 25 26 26 27 27 28 30 32 32 32 32 33 33 33 33 33 34 34 36 36 37 38
10 11 11 13 14 15 15 15 15 14 15 16 17 16 19 20 21 21 22 23 24 24 25 27 26 27 27 28 30 32 32 32 33 33 34 33 34 34 34 35 35 36 37
10 10 11 12 13 14 15 15 15 14 15 17 15 17 20 21 18 20 20 21 23 25 25 25 26 26 27 28 29 30 32 32 33 33 33 34 34 34 34 34 35 35 36
8 9 9 11 12 13 14 15 16 14 13 13 15 18 17 15 18 19 18 19 20 22 24 25 25 26 27 27 29 30 32 33 33 33 33 34 34 34 34 34 34 34 35
7 8 9 10 12 12 13 14 15 14 13 13 14 14 16 16 15 17 17 16 16 19 22 24 26 27 27 28 27 29 31 32 33 34 34 34 34 34 34 34 34 34 34
8 9 9 10 10 11 12 13 14 15 14 13 13 13 14 16 15 16 15 13 14 17 20 24 26 27 27 28 29 29 30 31 32 33 34 34 34 34 34 34 34 34 34
7 7 7 8 9 10 12 12 13 14 14 13 14 14 15 15 15 13 11 13 14 16 19 22 26 27 27 27 29 28 29 30 31 32 34 34 35 35 34 34 34 33 33
3 4 6 7 9 10 11 12 12 13 13 13 14 14 14 15 15 13 12 11 15 17 19 23 23 28 27 27 28 27 28 30 31 32 33 34 35 35 35 34 33 33 33
3 4 5 7 8 9 10 11 12 11 12 12 13 14 14 14 14 14 13 14 15 17 20 23 25 27 27 26 27 27 28 30 30 31 32 34 34 35 35 35 34 34 33
2 2 4 6 7 8 9 11 11 11 11 12 12 12 13 13 13 13 14 16 17 17 19 22 24 25 27 25 27 26 27 29 30 31 31 33 34 35 36 35 35 35 34
1 2 3 5 6 7 9 9 10 10 10 11 12 12 12 12 12 13 15 17 19 19 18 20 23 24 25 26 26 27 27 28 28 30 31 32 33 34 35 36 36 35 35
2 2 3 5 6 7 8 8 8 9 9 10 11 10 10 11 12 13 15 17 19 20 19 20 23 24 24 26 26 26 27 26 28 30 31 31 32 34 34 36 36 36 35
3 3 3 4 5 6 7 8 7 8 8 9 10 9 9 10 11 13 15 16 19 20 20 19 21 22 23 27 26 25 25 27 28 29 30 31 31 33 34 35 36 36 36
3 4 5 4 4 6 7 6 6 6 7 9 10 10 10 10 11 13 14 16 18 19 19 19 21 23 24 25 25 28 28 25 29 32 29 31 29 31 34 35 36 37 37
4 4 4 5 5 5 5 4 5 6 7 8 9 9 10 11 12 14 14 16 17 18 19 20 22 23 26 27 29 28 28 28 24 32 29 31 29 31 32 34 36 37 37
6 6 4 4 4 6 3 4 4 4 5 7 7 9 9 11 12 14 15 16 17 18 19 21 22 24 26 27 27 29 30 29 28 30 30 31 29 31 32 33 36 37 37
8 10 5 7 5 3 3 3 2 3 5 6 7 8 10 11 11 12 14 16 17 18 19 20 22 23 25 27 28 29 28 28 25 29 30 30 31 29 30 32 36 37 37
12 13 7 5 5 3 3 1 1 2 5 6 8 9 10 10 9 11 14 16 18 19 19 18 21 22 23 24 27 27 28 28 24 24 31 29 32 28 27 30 34 37 37
10 9 9 7 6 4 3 4 1 2 4 6 9 10 11 12 6 10 14 16 17 18 19 18 21 23 24 25 27 27 29 30 28 26 28 28 31 30 25 29 32 35 36
10 9 9 8 8 7 5 4 3 1 3 6 9 11 12 12 10 12 14 15 16 18 17 19 22 24 24 26 27 27 27 29 29 27 27 30 30 31 29 26 31 33 34
Wind_Direction
321 323 326 330 333 336 339 344 348 347 347 349 353 1 1 358 359 358 358 357 354 350 345 342 338 337 336 332 327 322 321 319 317 313 307 301 300 301 298 294 287 283 280
319 322 325 328 331 335 341 345 346 345 348 352 358 359 359 359 357 355 353 354 354 353 348 344 339 335 333 331 330 329 327 320 315 313 310 304 299 297 301 294 290 288 280
316 320 324 327 331 337 342 344 343 344 348 353 356 356 356 355 355 355 354 352 349 350 348 347 343 339 334 330 327 325 323 323 320 316 311 306 303 299 295 293 292 287 284
320 322 325 327 331 334 336 338 337 339 342 346 348 348 350 354 355 356 356 353 350 347 344 345 345 341 338 335 331 327 324 322 321 319 315 311 305 299 298 293 289 292 285
317 320 323 324 328 330 330 331 331 334 341 345 347 348 349 351 353 355 354 353 352 351 346 343 343 342 340 338 336 333 329 326 322 320 318 315 310 306 299 295 293 288 288
312 317 320 323 325 325 328 331 333 337 340 344 348 349 352 354 355 355 354 354 353 350 348 346 344 341 341 341 339 338 336 333 331 326 321 318 315 311 305 299 294 293 290
316 318 317 319 321 323 325 330 336 340 341 345 346 349 350 354 355 356 357 356 355 354 352 349 347 345 343 343 342 340 337 335 333 331 329 326 322 318 312 304 299 294 291
309 309 312 316 320 324 328 331 331 331 332 331 329 334 328 338 351 354 357 358 358 358 355 356 353 351 348 346 345 343 340 337 334 333 331 328 325 321 318 313 307 301 296
311 316 319 323 327 331 332 331 330 329 326 331 334 330 327 325 335 346 352 358 359 358 357 357 358 358 355 353 351 349 345 342 339 336 333 331 328 325 321 316 312 307 302
320 326 333 335 336 337 336 335 335 333 333 330 335 336 337 339 330 331 346 350 355 358 359 359 357 355 353 352 353 352 350 347 343 339 336 333 331 328 326 322 316 313 307
327 332 335 336 337 339 342 344 344 345 341 335 335 342 346 346 344 336 335 343 354 358 359 358 357 355 354 352 354 352 353 351 349 347 342 337 334 332 329 325 322 318 314
316 323 330 337 344 347 349 351 352 352 352 351 350 345 341 336 338 339 340 344 346 351 358 357 356 354 354 353 351 353 354 353 351 350 349 345 340 335 331 329 326 323 319
313 325 337 345 349 353 355 357 357 357 358 357 356 356 356 352 350 349 354 345 344 347 348 355 355 353 351 351 351 356 355 355 354 351 350 349 347 343 338 334 330 327 323
331 344 350 353 356 359 0 0 2 1 3 4 4 3 1 357 356 354 350 351 342 345 348 345 350 347 347 350 353 356 357 353 353 353 351 350 349 347 345 341 336 332 329
331 350 353 354 357 1 3 1 360 2 6 8 9 7 3 0 359 356 352 350 347 340 341 340 337 343 344 351 352 357 359 357 357 355 353 352 351 351 347 345 342 338 334
314 340 351 355 358 360 0 0 2 6 8 8 6 3 1 357 357 352 355 354 351 347 341 340 340 348 348 354 354 358 360 358 358 359 358 354 354 353 353 349 346 343 340
265 334 350 356 357 358 358 2 3 5 9 9 3 1 357 356 349 350 353 350 347 348 347 345 346 349 349 349 350 354 357 359 360 0 1 359 357 355 354 352 349 346 343
258 299 338 342 348 356 358 358 1 3 9 5 3 358 353 348 347 350 352 350 350 349 347 346 344 346 350 348 352 353 355 359 359 359 358 359 360 358 356 353 351 348 345
252 288 311 331 345 352 353 355 2 6 7 10 8 5 1 356 353 356 357 356 353 352 354 356 351 351 355 351 352 355 356 359 359 354 355 355 355 356 356 356 353 350 347
233 279 303 321 342 346 353 0 12 23 25 24 23 13 4 359 0 4 2 0 358 358 360 359 355 351 352 352 352 347 347 350 348 351 354 352 356 357 354 355 354 352 348
240 266 297 320 335 345 5 40 54 51 44 26 22 7 357 359 359 359 5 3 1 1 359 357 354 352 350 349 347 347 345 344 349 348 347 349 352 354 354 353 352 349 348
245 267 279 293 323 329 76 90 74 47 34 14 357 346 349 353 357 4 9 7 6 359 356 355 356 354 351 350 349 346 344 344 343 347 344 345 351 350 352 353 350 348 346
243 264 275 285 302 314 104 111 78 34 32 23 349 336 336 342 354 1 6 5 3 1 0 357 357 357 353 351 349 346 347 346 347 346 346 344 346 348 352 352 351 349 346
263 268 274 270 273 276 144 173 76 17 359 14 342 327 332 339 353 355 353 352 353 354 356 1 1 1 359 356 352 349 346 345 347 347 347 343 346 346 349 353 351 349 347
265 267 265 269 262 260 227 206 199 322 341 354 338 332 328 333 0 354 348 350 354 355 5 9 3 1 358 357 353 349 346 343 342 343 348 346 346 345 346 349 350 349 347
260 254 255 265 264 265 243 201 180 271 330 339 331 326 324 329 340 342 345 348 349 350 354 354 352 353 355 353 351 350 346 342 341 341 346 344 345 347 342 346 346 346 346